Location: Kaseke
(18.0171°S, 31.0526°E)
Time: 12:24:08
(UTC+00:00)

Delta 168 - Pass Details

Date: 14 July 2020
Orbit: 394 x 2050 km, 25.3° (Epoch: 07 August)

Event Time Altitude Azimuth Distance (km) Brightness Sun altitude
Exits shadow 03:51:07 10° 262° (W) 2,508 5.5 -8.9°
Reaches altitude 10° 03:51:07 10° 262° (W) 2,508 5.5 -8.9°
Maximum altitude 03:56:27 39° 193° (SSW) 973 3.8 -7.7°
Drops below altitude 10° 04:00:13 10° 123° (ESE) 1,762 6.0 -6.9°
Sets 04:02:13 0° 114° (ESE) 2,516 7.0 -6.4°
